This is the latest recevied weather packets stored in our database for station/object N4JTC. If no packets are shown the sender has not sent any weather packets the latest 1 day(s).
| Time | Temp. | Humidity | Pressure | Rain* | Wind** | Luminosity | Snow |
|---|---|---|---|---|---|---|---|
| 1777997103 | 26.67° C | 58% | 1017 hPa | 0 mm | 1.79 m/s, 61° | 939 W/m² | - |
| 1777996803 | 26.67° C | 58% | 1016.9 hPa | 0 mm | 2.24 m/s, 147° | 914 W/m² | - |
| 1777996503 | 26.11° C | 59% | 1017.1 hPa | 0 mm | 1.34 m/s, 92° | 865 W/m² | - |
| 1777995903 | 25.56° C | 59% | 1017.1 hPa | 0 mm | 1.79 m/s, 57° | 942 W/m² | - |
| 1777995302 | 26.11° C | 60% | 1017.1 hPa | 0 mm | 1.79 m/s, 81° | 800 W/m² | - |
| 1777995003 | 25.56° C | 60% | 1017 hPa | 0 mm | 0.89 m/s, 107° | 868 W/m² | - |
| 1777994703 | 25° C | 62% | 1016.9 hPa | 0 mm | 1.79 m/s, 139° | 935 W/m² | - |
| 1777994403 | 25° C | 62% | 1017 hPa | 0 mm | 0.89 m/s, 66° | 769 W/m² | - |
| 1777994103 | 25° C | 62% | 1016.9 hPa | 0 mm | 2.24 m/s, 141° | 681 W/m² | - |
| 1777993503 | 24.44° C | 64% | 1016.9 hPa | 0 mm | 1.34 m/s, 125° | 754 W/m² | - |
| 1777993203 | 24.44° C | 65% | 1017.2 hPa | 0 mm | 0.89 m/s, 72° | 769 W/m² | - |
| 1777992903 | 24.44° C | 65% | 1016.9 hPa | 0 mm | 1.34 m/s, 64° | 736 W/m² | - |
| 1777992303 | 23.89° C | 65% | 1016.9 hPa | 0 mm | 1.34 m/s, 65° | 682 W/m² | - |
| 1777991703 | 24.44° C | 64% | 1017 hPa | 0 mm | 0.89 m/s, 133° | 637 W/m² | - |
| 1777991403 | 24.44° C | 64% | 1016.7 hPa | 0 mm | 0.89 m/s, 81° | 700 W/m² | - |
| 1777991102 | 23.89° C | 65% | 1016.9 hPa | 0 mm | 1.34 m/s, 128° | 667 W/m² | - |
| 1777990503 | 23.33° C | 68% | 1016.7 hPa | 0 mm | 1.34 m/s, 84° | 596 W/m² | - |
| 1777990202 | 23.33° C | 68% | 1016.9 hPa | 0 mm | 1.34 m/s, 82° | 562 W/m² | - |
| 1777989903 | 22.78° C | 69% | 1016.7 hPa | 0 mm | 2.24 m/s, 75° | 576 W/m² | - |
| 1777989603 | 22.22° C | 73% | 1016.7 hPa | 0 mm | 0.89 m/s, 82° | 503 W/m² | - |
| 1777989302 | 22.22° C | 73% | 1016.7 hPa | 0 mm | 0.89 m/s, 59° | 402 W/m² | - |
| 1777988703 | 21.67° C | 74% | 1016.8 hPa | 0 mm | 1.79 m/s, 61° | 383 W/m² | - |
| 1777988403 | 21.11° C | 76% | 1016.7 hPa | 0 mm | 0.89 m/s, 75° | 399 W/m² | - |
| 1777988102 | 21.11° C | 77% | 1016.8 hPa | 0 mm | 0.89 m/s, 56° | 358 W/m² | - |
| 1777987803 | 20.56° C | 77% | 1016.9 hPa | 0 mm | 1.79 m/s, 63° | 271 W/m² | - |
* Rain latest hour (hover to see other rain measurements)
** Current wind speed in m/s (hover to see current wind gust speed)